When you browse on this site, cookies collect data to enhance your experience and personalize the content and advertising you see.
Visit our Privacy Policy to learn more. By continuing to use the site, you agree to this use of cookies and data.
  • In Latvia
  • List of Countries
  • For 7 days
  • Water Temperature
  • Satellite Maps
  • Weather Map
  • Weather Widgets
  • user-avatar
    Login

    Hourly Weather Jalalabad

    Today, 23 April, Tuesday

    Time Temperature Precipitation Wind Pressure Humidity
    00:00 +28°C° 0 mm 2 mps 709 mmHg 33%
    01:00 +27°C° 0 mm 1 mps 709 mmHg 34%
    02:00 +26°C° 0 mm 1 mps 709 mmHg 35%
    03:00 +26°C° 0 mm 1 mps 709 mmHg 35%
    04:00 +25°C° 0 mm 1 mps 709 mmHg 36%
    05:00 +25°C° 0 mm 1 mps 708 mmHg 39%
    06:00 +26°C° 0 mm 1 mps 708 mmHg 35%
    07:00 +27°C° 0 mm 1 mps 709 mmHg 30%
    08:00 +29°C° 0 mm 1 mps 709 mmHg 26%
    09:00 +30°C° 0 mm 1 mps 709 mmHg 25%
    10:00 +31°C° 0 mm 1 mps 709 mmHg 24%
    11:00 +32°C° 0 mm 2 mps 709 mmHg 23%
    12:00 +34°C° 0 mm 2 mps 709 mmHg 22%
    13:00 +34°C° 0 mm 3 mps 709 mmHg 21%
    14:00 +34°C° 0 mm 3 mps 709 mmHg 20%
    15:00 +34°C° 0.3 mm 3 mps 709 mmHg 21%
    16:00 +32°C° 0.3 mm 2 mps 709 mmHg 22%
    17:00 +32°C° 0.3 mm 2 mps 709 mmHg 24%
    18:00 +31°C° 0.4 mm 2 mps 709 mmHg 28%
    19:00 +30°C° 0.4 mm 2 mps 709 mmHg 32%
    20:00 +29°C° 0.4 mm 1 mps 710 mmHg 37%
    21:00 +28°C° 0.1 mm 2 mps 710 mmHg 39%
    22:00 +27°C° 0.1 mm 2 mps 710 mmHg 41%
    23:00 +27°C° 0.1 mm 2 mps 710 mmHg 43%

    Tomorrow, 24 April, Wednesday

    Time Temperature Precipitation Wind Pressure Humidity
    00:00 +26°C° 0 mm 2 mps 710 mmHg 44%
    01:00 +26°C° 0 mm 2 mps 709 mmHg 44%
    02:00 +25°C° 0 mm 2 mps 709 mmHg 45%
    03:00 +25°C° 0 mm 2 mps 709 mmHg 45%
    04:00 +25°C° 0 mm 2 mps 709 mmHg 45%
    05:00 +25°C° 0 mm 2 mps 709 mmHg 45%
    06:00 +26°C° 0.1 mm 2 mps 709 mmHg 42%
    07:00 +26°C° 0.1 mm 2 mps 710 mmHg 39%
    08:00 +27°C° 0.1 mm 2 mps 710 mmHg 37%
    09:00 +28°C° 0.1 mm 3 mps 710 mmHg 36%
    10:00 +29°C° 0.1 mm 3 mps 710 mmHg 35%
    11:00 +30°C° 0.1 mm 3 mps 710 mmHg 34%
    12:00 +32°C° 0 mm 4 mps 709 mmHg 33%
    13:00 +33°C° 0 mm 4 mps 709 mmHg 32%
    14:00 +34°C° 0 mm 4 mps 709 mmHg 31%
    15:00 +34°C° 0 mm 5 mps 708 mmHg 31%
    16:00 +34°C° 0 mm 5 mps 708 mmHg 31%
    17:00 +34°C° 0 mm 6 mps 707 mmHg 31%
    18:00 +33°C° 0.2 mm 5 mps 708 mmHg 34%
    19:00 +30°C° 0.2 mm 4 mps 708 mmHg 38%
    20:00 +29°C° 0.2 mm 3 mps 708 mmHg 42%
    21:00 +29°C° 0.1 mm 3 mps 709 mmHg 43%
    22:00 +28°C° 0.1 mm 3 mps 709 mmHg 44%
    23:00 +27°C° 0.1 mm 2 mps 709 mmHg 45%

    Day after tomorrow, 25 April, Thursday

    Time Temperature Precipitation Wind Pressure Humidity
    00:00 +27°C° 0 mm 2 mps 709 mmHg 46%
    01:00 +26°C° 0 mm 2 mps 709 mmHg 46%
    02:00 +26°C° 0 mm 2 mps 708 mmHg 47%
    03:00 +25°C° 0.1 mm 2 mps 708 mmHg 48%
    04:00 +24°C° 0.1 mm 2 mps 708 mmHg 50%
    05:00 +24°C° 0.1 mm 2 mps 708 mmHg 51%
    06:00 +25°C° 0.3 mm 2 mps 709 mmHg 49%
    07:00 +25°C° 0.3 mm 2 mps 709 mmHg 48%
    08:00 +26°C° 0.3 mm 2 mps 710 mmHg 46%
    09:00 +27°C° 0.1 mm 2 mps 710 mmHg 44%
    10:00 +28°C° 0.1 mm 3 mps 710 mmHg 41%
    11:00 +29°C° 0.1 mm 3 mps 710 mmHg 39%
    12:00 +30°C° 0 mm 3 mps 710 mmHg 35%
    13:00 +32°C° 0 mm 4 mps 710 mmHg 31%
    14:00 +33°C° 0 mm 5 mps 710 mmHg 27%
    15:00 +33°C° 0 mm 4 mps 709 mmHg 27%
    16:00 +33°C° 0 mm 4 mps 709 mmHg 28%
    17:00 +33°C° 0 mm 4 mps 709 mmHg 28%
    18:00 +31°C° 0 mm 3 mps 709 mmHg 31%
    19:00 +30°C° 0 mm 3 mps 709 mmHg 34%
    20:00 +29°C° 0 mm 2 mps 709 mmHg 38%
    21:00 +28°C° 0 mm 2 mps 710 mmHg 37%
    22:00 +27°C° 0 mm 2 mps 710 mmHg 37%
    23:00 +27°C° 0 mm 3 mps 710 mmHg 37%

    26 April, Friday

    Time Temperature Precipitation Wind Pressure Humidity
    00:00 +26°C° 0 mm 3 mps 710 mmHg 37%
    01:00 +25°C° 0 mm 3 mps 710 mmHg 37%
    02:00 +25°C° 0 mm 2 mps 709 mmHg 37%
    03:00 +24°C° 0 mm 2 mps 709 mmHg 37%
    04:00 +24°C° 0 mm 2 mps 709 mmHg 37%
    05:00 +23°C° 0 mm 2 mps 709 mmHg 37%
    06:00 +24°C° 0 mm 2 mps 709 mmHg 33%
    07:00 +25°C° 0 mm 2 mps 710 mmHg 29%
    08:00 +26°C° 0 mm 2 mps 710 mmHg 26%
    09:00 +27°C° 0 mm 2 mps 710 mmHg 26%
    10:00 +28°C° 0 mm 2 mps 710 mmHg 25%
    11:00 +29°C° 0 mm 2 mps 711 mmHg 25%
    12:00 +30°C° 0 mm 2 mps 710 mmHg 24%
    13:00 +31°C° 0 mm 2 mps 710 mmHg 22%
    14:00 +32°C° 0 mm 2 mps 710 mmHg 21%
    15:00 +32°C° 0 mm 2 mps 709 mmHg 20%
    16:00 +32°C° 0 mm 2 mps 709 mmHg 20%
    17:00 +32°C° 0 mm 2 mps 709 mmHg 19%
    18:00 +31°C° 0 mm 2 mps 709 mmHg 22%
    19:00 +30°C° 0 mm 2 mps 709 mmHg 25%
    20:00 +29°C° 0 mm 2 mps 710 mmHg 28%
    21:00 +28°C° 0 mm 2 mps 710 mmHg 28%
    22:00 +28°C° 0 mm 2 mps 710 mmHg 28%
    23:00 +27°C° 0 mm 2 mps 711 mmHg 29%

    27 April, Saturday

    Time Temperature Precipitation Wind Pressure Humidity
    00:00 +26°C° 0 mm 2 mps 710 mmHg 29%
    01:00 +26°C° 0 mm 2 mps 710 mmHg 29%
    02:00 +25°C° 0 mm 2 mps 710 mmHg 30%
    03:00 +25°C° 0 mm 2 mps 710 mmHg 30%
    04:00 +24°C° 0 mm 2 mps 710 mmHg 30%
    05:00 +24°C° 0 mm 2 mps 709 mmHg 30%
    06:00 +25°C° 0 mm 2 mps 710 mmHg 28%
    07:00 +26°C° 0 mm 2 mps 710 mmHg 26%
    08:00 +27°C° 0 mm 2 mps 710 mmHg 24%
    09:00 +28°C° 0 mm 2 mps 710 mmHg 24%
    10:00 +29°C° 0 mm 3 mps 710 mmHg 24%
    11:00 +30°C° 0 mm 3 mps 711 mmHg 24%
    12:00 +31°C° 0 mm 3 mps 710 mmHg 22%
    13:00 +33°C° 0 mm 3 mps 710 mmHg 19%
    14:00 +34°C° 0 mm 3 mps 709 mmHg 17%
    15:00 +34°C° 0 mm 2 mps 709 mmHg 16%
    16:00 +34°C° 0 mm 2 mps 709 mmHg 15%
    17:00 +34°C° 0 mm 2 mps 708 mmHg 15%
    18:00 +32°C° 0 mm 2 mps 708 mmHg 16%
    19:00 +30°C° 0 mm 2 mps 709 mmHg 17%
    20:00 +29°C° 0 mm 2 mps 709 mmHg 19%
    21:00 +29°C° 0 mm 2 mps 709 mmHg 20%
    22:00 +28°C° 0 mm 2 mps 709 mmHg 21%
    23:00 +27°C° 0 mm 2 mps 710 mmHg 22%

    28 April, Sunday

    Time Temperature Precipitation Wind Pressure Humidity
    00:00 +26°C° 0 mm 2 mps 709 mmHg 23%
    01:00 +26°C° 0 mm 2 mps 709 mmHg 24%
    02:00 +25°C° 0 mm 2 mps 709 mmHg 25%
    03:00 +24°C° 0 mm 2 mps 708 mmHg 26%
    04:00 +24°C° 0 mm 2 mps 708 mmHg 26%
    05:00 +23°C° 0 mm 2 mps 708 mmHg 26%
    06:00 +24°C° 0 mm 2 mps 709 mmHg 24%
    07:00 +26°C° 0 mm 2 mps 709 mmHg 21%
    08:00 +27°C° 0 mm 2 mps 710 mmHg 19%
    09:00 +28°C° 0 mm 2 mps 710 mmHg 17%
    10:00 +29°C° 0 mm 2 mps 710 mmHg 16%
    11:00 +30°C° 0 mm 2 mps 710 mmHg 15%
    12:00 +31°C° 0 mm 2 mps 709 mmHg 13%
    13:00 +32°C° 0 mm 2 mps 709 mmHg 12%
    14:00 +32°C° 0 mm 2 mps 708 mmHg 11%
    15:00 +32°C° 0 mm 2 mps 708 mmHg 11%
    16:00 +34°C° 0 mm 2 mps 708 mmHg 11%
    17:00 +34°C° 0 mm 2 mps 708 mmHg 11%
    18:00 +31°C° 0 mm 2 mps 708 mmHg 14%
    19:00 +30°C° 0 mm 1 mps 708 mmHg 16%
    20:00 +28°C° 0 mm 1 mps 708 mmHg 19%
    21:00 +28°C° 0 mm 1 mps 709 mmHg 19%
    22:00 +27°C° 0 mm 1 mps 709 mmHg 19%
    23:00 +27°C° 0 mm 1 mps 709 mmHg 18%
    Show more